Weather History for Cape Girardeau, MO

Change the Weather History Date:

Saturday, June 15, 2013

  Actual Average Record
Temperature  
Mean Temperature 76 °F 75 °F  
Max Temperature 89 °F 87 °F 97 °F (2010)
Min Temperature 62 °F 64 °F 53 °F (1961)
Degree Days  
Heating Degree Days 0 0  
Month to date heating degree days 0 1  
Since 1 June heating degree days 0 1  
Since 1 July heating degree days 4359 4387  
Cooling Degree Days 11 10  
Month to date cooling degree days 116 129  
Year to date cooling degree days 287 281  
Since 1 June cooling degree days 116 129  
Growing Degree Days 26 (Base 50)    
Moisture  
Dew Point 64 °F    
Average Humidity 67    
Maximum Humidity 93    
Minimum Humidity 40    
Precipitation  
Precipitation 0.00 in 0.11 in 0.92 in (1982)
Month to date precipitation 3.73 1.85  
Year to date precipitation 19.90 22.95  
Sea Level Pressure  
Sea Level Pressure 30.02 in    
Wind  
Wind Speed 4 mph (SSW)    
Max Wind Speed 13 mph    
Max Gust Speed 16 mph    
Visibility 10 miles    
Events      
T = Trace of Precipitation, MM = Missing Value Source: NWS Daily Summary

Daily Weather History Graph

Daily Weather History Graph

Search for Another Location

Airport:

Trip Planner

Search our weather history database for the weather conditions in past years. The results will help you decide how hot, cold, wet, or windy it might be!

Date:

Astronomy

Jun. 15, 2013 Rise Set
Actual Time 5:37 AM CDT 8:20 PM CDT
Civil Twilight 5:06 AM CDT 8:51 PM CDT
Nautical Twilight 4:27 AM CDT 9:29 PM CDT
Astronomical Twilight 3:44 AM CDT 10:13 PM CDT
Moon 12:04 PM CDT (6/15) 12:03 AM CDT (6/15)
Length of Visible Light 15h 44m
Length of Day
14h 42m
Waxing Crescent, 40% of the Moon is Illuminated
Jun 15
Waxing Crescent
Jun 16
First Quarter
Jun 23
Full
Jun 29
Last Quarter
Jul 8
New

Hourly Weather History & Observations

Time (CDT) Temp. Heat Index Dew Point Humidity Pressure Visibility Wind Dir Wind Speed Gust Speed Precip Events Conditions
12:53 AM 64.0 °F - 62.1 °F 93% 30.04 in 10.0 mi SSE 3.5 mph - N/A   Clear
1:53 AM 64.0 °F - 62.1 °F 93% 30.03 in 10.0 mi ESE 5.8 mph - N/A   Clear
2:53 AM 66.0 °F - 63.0 °F 90% 30.02 in 10.0 mi Calm Calm - N/A   Clear
3:53 AM 66.0 °F - 61.0 °F 84% 30.02 in 10.0 mi Calm Calm - N/A   Clear
4:53 AM 66.0 °F - 61.0 °F 84% 30.04 in 10.0 mi Calm Calm - N/A   Clear
5:53 AM 63.0 °F - 61.0 °F 93% 30.05 in 10.0 mi Calm Calm - N/A   Clear
6:53 AM 64.9 °F - 62.1 °F 90% 30.07 in 10.0 mi Calm Calm - N/A   Clear
7:53 AM 71.1 °F - 66.0 °F 84% 30.08 in 10.0 mi Calm Calm - N/A   Clear
8:53 AM 77.0 °F - 64.0 °F 64% 30.08 in 10.0 mi South 3.5 mph - N/A   Clear
9:53 AM 79.0 °F - 63.0 °F 58% 30.04 in 10.0 mi South 6.9 mph - N/A   Clear
10:53 AM 82.0 °F 83.4 °F 64.0 °F 54% 30.04 in 10.0 mi South 6.9 mph - N/A   Clear
11:53 AM 84.0 °F 84.5 °F 62.1 °F 47% 30.03 in 10.0 mi SW 5.8 mph - N/A   Clear
12:53 PM 84.9 °F 85.4 °F 62.1 °F 46% 30.02 in 10.0 mi SW 8.1 mph - N/A   Clear
1:53 PM 87.1 °F 87.8 °F 63.0 °F 44% 30.00 in 10.0 mi SSW 8.1 mph - N/A   Clear
2:53 PM 87.1 °F 87.0 °F 61.0 °F 41% 29.98 in 10.0 mi SSW 8.1 mph - N/A   Clear
3:53 PM 88.0 °F 88.7 °F 63.0 °F 43% 29.99 in 10.0 mi SW 5.8 mph - N/A   Clear
4:53 PM 87.1 °F 87.0 °F 61.0 °F 41% 29.96 in 10.0 mi West 5.8 mph - N/A   Clear
5:53 PM 87.1 °F 87.8 °F 63.0 °F 44% 29.98 in 10.0 mi West 5.8 mph - N/A   Clear
6:53 PM 84.0 °F 85.8 °F 64.9 °F 53% 29.96 in 10.0 mi WSW 3.5 mph - N/A   Clear
7:53 PM 80.1 °F 82.7 °F 68.0 °F 67% 29.97 in 10.0 mi WSW 5.8 mph - N/A   Clear
8:53 PM 77.0 °F - 68.0 °F 74% 29.97 in 10.0 mi SW 4.6 mph - N/A   Clear
9:53 PM 73.0 °F - 69.1 °F 87% 29.99 in 10.0 mi Calm Calm - N/A   Clear
10:53 PM 73.9 °F - 69.1 °F 85% 30.00 in 10.0 mi Calm Calm - N/A   Clear
11:53 PM 73.0 °F - 69.1 °F 87% 30.01 in 10.0 mi Calm Calm - N/A   Clear